User: anonymous   Login
Location: Cantaing
(50.1487°N, 3.1675°E)
Time: 19:34:16
(UTC+00:00)
Language:

CBERS-1 - Orbit

View from above orbital plane
View from above orbital plane
View from above satellite
View from above satellite

Ground track
Ground track

The orbit is defined by the following mean orbital elements,

1 25940U          26073.61929904 +.00000000 +00000-0 +10336-3 0 00007
2 25940  98.8518  80.5043 0003852 279.5123  80.5627 14.36963835    04
Epoch (UTC): 14 March 2026 14:51:47
Eccentricity: 0.0003852
inclination: 98.8518°
perigee height: 766 km
apogee height: 771 km
right ascension of ascending node: 80.5043°
argument of perigee: 279.5123°
revolutions per day: 14.36963835
mean anomaly at epoch: 80.5627°

The dashed part of the orbit path shows where the satellite is in the earth's shadow,  

DLR